CW7204 Weather Reports


Display with metric or nautical units.
time (UTC)temp
F
wind
direction
speed
MPH
gust
MPH
rain 1hr
in
rain 24hr
in
rain mn
in
humidity
%
barometer
mb
20260902070413 58 202 2.0 4.0 0.00 0.31 0.01 93 1018.4
20260902065413 58 225 1.0 4.0 0.00 0.31 0.01 93 1018.4
20260902064413 57 180 2.0 4.0 0.00 0.31 0.01 94 1018.3
20260902062413 56 202 2.0 6.0 0.00 0.31 0.01 95 1018.3
20260902055413 55 180 3.0 6.0 0.00 0.31 0.01 96 1018.4
20260902054413 55 202 0.0 4.0 0.00 0.31 0.01 96 1018.4
20260902053413 55 180 1.0 6.0 0.00 0.31 0.01 96 1018.4
20260902052413 55 180 1.0 4.0 0.00 0.31 0.01 96 1018.4
20260902051412 55 202 1.0 6.0 0.00 0.31 0.01 96 1018.3
20260902050413 54 202 1.0 2.0 0.00 0.31 0.01 96 1018.3
20260902045412 54 202 1.0 2.0 0.00 0.31 0.01 96 1018.1
20260902043412 54 180 0.0 2.0 0.00 0.31 0.01 96 1018.2
20260902042412 54 202 1.0 4.0 0.00 0.31 0.01 97 1018.1
20260902041412 54 180 1.0 2.0 0.00 0.31 0.01 96 1018.2
20260902040412 54 180 1.0 4.0 0.00 0.31 0.01 96 1018.2
20260902035412 54 0 0.0 2.0 0.00 0.31 0.01 96 1018.4
20260902034412 54 180 2.0 6.0 0.00 0.31 0.01 97 1018.4
20260902033412 55 180 2.0 6.0 0.00 0.31 0.01 97 1018.4
20260902031414 55 180 1.0 4.0 0.01 0.31 0.01 97 1018.4
20260902030412 54 202 1.0 4.0 0.01 0.31 0.01 97 1018.4
20260902025412 54 180 1.0 6.0 0.01 0.31 0.01 97 1018.4
20260902024412 54 180 2.0 4.0 0.01 0.31 0.01 97 1018.4
20260902023412 55 157 1.0 4.0 0.01 0.31 0.01 97 1018.4
20260902022412 55 180 1.0 6.0 0.01 0.31 0.01 97 1018.4
20260902021412 55 202 1.0 4.0 0.00 0.30 0.00 97 1018.4
20260902020412 55 157 2.0 6.0 0.00 0.30 0.00 97 1018.4
20260902015412 55 180 1.0 6.0 0.00 0.31 0.00 97 1018.4
20260902014412 55 202 1.0 4.0 0.00 0.31 0.00 97 1018.3
20260902012411 55 202 1.0 4.0 0.00 0.31 0.00 97 1018.3
20260902011412 55 202 2.0 4.0 0.00 0.31 0.00 97 1018.3
20260902010412 55 180 1.0 3.0 0.00 0.31 0.00 97 1018.3
20260902005411 55 180 2.0 4.0 0.00 0.31 0.00 97 1018.3
20260902003412 55 0 0.0 2.0 0.00 0.31 0.00 96 1018.3
20260902002411 56 180 0.0 4.0 0.00 0.31 0.00 97 1018.3
20260902001412 56 202 1.0 2.0 0.00 0.31 0.00 97 1018.3
20260902000414 56 202 1.0 2.0 0.00 0.31 0.00 97 1018.3
20260901235411 56 225 1.0 2.0 0.00 0.31 0.00 96 1018.4
20260901234412 56 202 1.0 4.0 0.00 0.31 0.00 96 1018.4
20260901233413 56 202 1.0 4.0 0.00 0.31 0.00 96 1018.4
20260901231411 57 180 2.0 3.0 0.00 0.31 0.00 97 1018.7
20260901230411 57 202 1.0 2.0 0.00 0.31 0.00 97 1018.7
20260901225411 56 225 0.0 4.0 0.00 0.31 0.00 96 1018.6
20260901224413 56 202 1.0 2.0 0.00 0.31 0.00 96 1018.6
20260901223411 57 0 0.0 0.0 0.00 0.31 0.00 96 1018.6
20260901222411 57 0 0.0 0.0 0.00 0.31 0.00 96 1018.6
20260901221411 57 0 0.0 2.0 0.00 0.31 0.00 96 1018.6
20260901220412 57 225 0.0 2.0 0.01 0.31 0.00 96 1018.6
20260901215411 57 0 0.0 0.0 0.01 0.31 0.31 95 1018.6
20260901214411 58 0 0.0 2.0 0.01 0.31 0.31 95 1018.5
20260901213411 58 0 0.0 0.0 0.01 0.31 0.31 95 1018.5
20260901212411 59 0 0.0 2.0 0.01 0.31 0.31 94 1018.4
20260901211411 59 225 1.0 6.0 0.01 0.31 0.31 94 1018.4
20260901210411 59 225 0.0 3.0 0.00 0.31 0.31 93 1018.4
20260901205411 59 247 2.0 7.0 0.00 0.31 0.31 92 1018.4
20260901204412 59 202 1.0 4.0 0.00 0.31 0.31 92 1018.4
20260901203411 59 225 3.0 7.0 0.00 0.31 0.31 91 1018.4
20260901202410 59 270 3.0 8.0 0.00 0.31 0.31 90 1018.4
20260901201412 59 225 1.0 9.0 0.00 0.31 0.31 89 1018.2
20260901200410 59 225 1.0 10.0 0.00 0.31 0.31 89 1018.2
20260901195410 60 202 1.0 6.0 0.00 0.31 0.31 89 1018.1
20260901194410 59 202 3.0 7.0 0.00 0.31 0.31 89 1018.0
20260901193410 59 225 0.0 7.0 0.00 0.31 0.31 89 1018.0
20260901192412 60 225 0.0 3.0 0.00 0.31 0.31 87 1017.9
20260901190410 60 270 1.0 8.0 0.00 0.31 0.31 87 1017.9
20260901184410 61 247 2.0 4.0 0.00 0.39 0.31 87 1017.4
20260901181410 62 247 2.0 8.0 0.00 0.39 0.31 84 1017.3
20260901180410 62 292 3.0 9.0 0.00 0.39 0.31 83 1017.3
20260901174410 63 225 3.0 13.0 0.00 0.39 0.31 80 1017.0
20260901170410 63 292 1.0 6.0 0.00 0.39 0.31 79 1016.9
20260901165410 64 270 4.0 11.0 0.00 0.39 0.31 77 1016.9
20260901164411 64 292 1.0 10.0 0.00 0.39 0.31 77 1016.9
20260901163410 64 292 2.0 11.0 0.00 0.39 0.31 76 1016.9
20260901161410 65 225 4.0 13.0 0.00 0.39 0.31 76 1016.8
20260901160411 64 315 3.0 7.0 0.00 0.39 0.31 81 1016.8
20260901155410 64 270 3.0 7.0 0.00 0.39 0.31 83 1016.7
20260901154410 63 225 3.0 9.0 0.00 0.39 0.31 85 1016.7
20260901151410 64 225 2.0 10.0 0.00 0.39 0.31 85 1016.4
20260901150409 65 225 6.0 10.0 0.00 0.39 0.31 86 1016.4
20260901145409 64 225 3.0 11.0 0.00 0.46 0.31 86 1016.3
20260901143410 64 247 3.0 18.0 0.00 0.46 0.31 83 1016.3
20260901142409 64 292 3.0 11.0 0.00 0.46 0.31 83 1016.3
20260901141409 64 315 4.0 17.0 0.00 0.46 0.31 83 1016.3
20260901140409 64 315 4.0 12.0 0.00 0.46 0.31 86 1016.3
20260901135409 64 315 4.0 11.0 0.00 0.61 0.31 89 1016.1
20260901134409 65 270 4.0 10.0 0.00 0.61 0.31 87 1016.1
20260901133409 65 247 7.0 18.0 0.12 0.61 0.31 87 1016.1
20260901132409 67 202 8.0 23.0 0.28 0.61 0.31 88 1015.8
20260901131414 66 247 3.0 11.0 0.29 0.61 0.31 93 1015.9
20260901125414 64 225 4.0 12.0 0.29 0.61 0.31 94 1015.9
20260901124414 63 247 1.0 4.0 0.29 0.61 0.31 94 1016.1
20260901122414 65 315 1.0 8.0 0.01 0.32 0.02 88 1015.8
20260901121414 67 315 3.0 10.0 0.00 0.31 0.02 80 1015.8
20260901120414 67 315 6.0 11.0 0.00 0.31 0.02 78 1015.8
20260901115414 67 225 3.0 16.0 0.00 0.33 0.02 79 1015.5
20260901113414 68 270 8.0 12.0 0.00 0.33 0.02 79 1015.4
20260901112413 68 202 4.0 14.0 0.00 0.33 0.02 79 1015.3
20260901111414 69 315 7.0 11.0 0.00 0.33 0.02 78 1015.3
20260901110414 68 202 3.0 16.0 0.00 0.33 0.02 80 1015.3
20260901105413 68 225 3.0 12.0 0.00 0.33 0.02 80 1015.3
20260901104413 68 247 4.0 9.0 0.00 0.33 0.02 79 1015.2
20260901103413 68 292 3.0 11.0 0.00 0.33 0.02 81 1015.2
20260901102413 67 292 6.0 14.0 0.00 0.33 0.02 81 1015.1
20260901101413 67 247 4.0 20.0 0.00 0.33 0.02 82 1014.8
20260901100413 67 292 7.0 11.0 0.00 0.33 0.02 82 1014.8
20260901095413 67 270 3.0 10.0 0.00 0.33 0.02 83 1014.8
20260901094413 67 270 3.0 8.0 0.00 0.33 0.02 84 1014.8
20260901092413 66 292 6.0 11.0 0.00 0.33 0.02 85 1014.7
20260901091413 66 315 3.0 12.0 0.00 0.33 0.02 86 1014.7
20260901090413 65 315 1.0 10.0 0.00 0.33 0.02 88 1014.7
20260901085413 65 225 2.0 12.0 0.00 0.33 0.02 88 1014.7
20260901082413 64 315 2.0 10.0 0.00 0.33 0.02 92 1014.4
20260901081413 64 225 6.0 14.0 0.00 0.33 0.02 91 1014.4
20260901080413 64 247 4.0 9.0 0.00 0.33 0.02 93 1014.4
20260901075414 63 202 2.0 6.0 0.00 0.33 0.02 95 1014.4
20260901074413 62 180 3.0 7.0 0.00 0.33 0.02 95 1014.2
20260901071413 62 225 4.0 8.0 0.00 0.33 0.02 97 1013.9